Volver al catálogo

STARLINK-34162

ActivoComunicacionesVLEO
NORAD 64018·PAYLOAD·🇺🇸 United States

Lanzado May 14, 2025 desde Cape Canaveral Space Force Station

Loading…

Próximos Pases (próximas 24 horas)

TLE

ActualizadoSource: CelesTrak SupGP

Época: Sep 15, 2026, 02:23 UTC

1 64018C 25101AA  26258.09979167  .00013172  00000+0  47695-3 0  2584
2 64018  43.0044   8.2995 0001715 268.1758  56.8432 15.27580957    18

Sigue STARLINK-34162 en tiempo real con AllMySat

Download on the App Store